Flag for U.S.A. Weather past 2 weeks in Anderson, South Carolina, U.S.A.

Now
65 °F

Passing clouds.


Feels Like: 65 °F
Forecast: 67 / 89 °F
Wind: No wind

Location: Anderson County Airport

Current Time: Sep 1, 2015 at 6:23:48 AM

Latest Report: Sep 1, 2015 at 5:56 AM


Visibility: 10 mi

Pressure: 30.08 "Hg

Humidity: 94%

Dew point: 63 °F

Location of AndersonLocation

Historic Weather in Anderson — Graph

°F

Anderson temperature yesterday

Maximum temperature yesterday: 85 °F (at 3:56 PM)
Minimum temperature yesterday: 63 °F (at 5:56 AM)
Average temperature yesterday: 73 °F

Past Weeks' High & Low Weather Summary

 TemperatureHumidityPressure
High89 °F (Aug 24, 3:56 PM)100% (Aug 24, 7:56 AM)30.21 "Hg (Aug 24, 7:56 AM)
Low63 °F (Aug 31, 5:56 AM)46% (Aug 25, 3:56 PM)29.85 "Hg (Aug 25, 4:56 PM)
Average76 °F76%30.02 "Hg
* Reported Aug 17 4:56 AM — Sep 1 4:56 AM, Anderson, Weather by CustomWeather, © 2015

Note: Actual official high and low records may vary slightly from our data, if they occured in-between our weather recording intervals... More about our weather records

Advertising

Anderson weather history for previous 24 hours

 ConditionsComfort  
Time TempWeatherWind HumidityBarometerVisibility
4:56 AM
Tue, Sep 1
67 °FClear.No wind90%30.07 "Hg10 mi
3:56 AM68 °FClear.No wind93%30.06 "Hg10 mi
2:56 AM67 °FClear.No wind93%30.08 "Hg10 mi
1:56 AM68 °FClear.No wind93%30.08 "Hg10 mi
12:56 AM70 °FClear.No wind90%30.09 "Hg10 mi
10:56 PM
Mon, Aug 31
71 °FClear.No wind87%30.09 "Hg10 mi
9:56 PM73 °FClear.No wind81%30.08 "Hg10 mi
8:56 PM76 °FSunny.No wind69%30.06 "Hg10 mi
7:56 PM79 °FSunny.5 mph62%30.05 "Hg10 mi
6:56 PM83 °FSunny.7 mph55%30.03 "Hg10 mi
4:56 PM85 °FSunny.No wind50%30.04 "Hg10 mi
3:56 PM85 °FPassing clouds.6 mph55%30.06 "Hg10 mi
2:56 PM83 °FSunny.No wind55%30.07 "Hg10 mi
1:56 PM84 °FSunny.3 mph53%30.08 "Hg10 mi
12:56 PM82 °FSunny.3 mph56%30.10 "Hg10 mi
11:56 AM79 °FSunny.5 mph60%30.12 "Hg10 mi
10:56 AM77 °FSunny.No wind66%30.13 "Hg10 mi
9:56 AM73 °FSunny.5 mph74%30.12 "Hg10 mi
8:56 AM69 °FSunny.5 mph84%30.11 "Hg10 mi
7:56 AM66 °FClear.3 mph90%30.11 "Hg9 mi
6:56 AM65 °FPassing clouds.3 mph94%30.09 "Hg10 mi
Weather by CustomWeather, © 2015

See weather overviewHow to use our weather pages